Torna al catalogo

STARLINK-3201

AttivoComunicazioniVLEO
NORAD 49771·PAYLOAD·🇺🇸 United States

Lanciato Dec 2, 2021 da Cape Canaveral Space Force Station

Loading…

Prossimi Passaggi (prossime 24 ore)

TLE

AggiornatoSource: CelesTrak SupGP

Epoca: Sep 15, 2026, 02:37 UTC

1 49771C 21115AZ  26258.10951389  .00044378  00000+0  13114-2 0  2582
2 49771  53.1590 354.6363 0001088  96.5439 330.0356 15.34364022    17

Traccia STARLINK-3201 in tempo reale con AllMySat

Download on the App Store